Simultaneous Nadir Overpasses (SNOs) Predictions

Prediction of SNOs between GOES-17 and TERRA Satellite Orbit:

Table of predicted SNOs for the next 14.0 days since TLE Epoch: 3/16/2024
Index Date Time (GOES-17) GOES-17 Lat,Lon TERRA Lat,Lon Distance(km) Time Diff (sec)
1 03/16/2024 16:58:54 -0.01,-104.69 0.46,-106.88 250.20 80
2 03/18/2024 16:44:34 -0.02,-104.68 -0.43,-102.79 215.27 80
3 03/19/2024 05:04:43 0.02,-104.69 -0.60,-107.69 341.03 80
4 03/21/2024 04:45:02 -0.00,-104.68 0.25,-103.58 125.62 80
5 03/21/2024 17:05:03 0.00,-104.68 0.81,-108.44 428.49 80
6 03/23/2024 16:50:42 0.01,-104.68 -0.06,-104.34 38.45 80
7 03/26/2024 04:53:49 -0.01,-104.69 -0.12,-105.13 50.03 80
8 03/28/2024 04:34:07 -0.02,-104.70 0.73,-101.02 417.19 80
9 03/28/2024 16:54:09 0.02,-104.69 0.26,-105.89 137.05 80
